BAW252 MBPV-TKPK

Flight info

Callsign BAW252
Flight time 1h 30m
Altitude 39000
Route PVN G648 GTK R507 ANTOX Y308 ACONY Y280 GOTAY DCT SKB
Aircraft B772/H-SDE2E3FGHIJ5LORVWXY/LB1D1

Departure

Time 2026-04-23 19:35
Airport Providenciales International Airport (MBPV)

Arrival

Time 2026-04-23 21:06
Airport Robert L. Bradshaw International Airport (TKPK)
Time Latitude Longitude Altitude Speed Heading
2026-04-23 19:05 21.77594 -72.27289 35 ft 0 kts 34°
2026-04-23 19:27 21.77591 -72.27291 35 ft 3 kts 35°
2026-04-23 19:27 21.77526 -72.27312 32 ft 4 kts 300°
2026-04-23 19:28 21.77518 -72.27288 34 ft 0 kts 272°
2026-04-23 19:31 21.77518 -72.27292 33 ft 2 kts 272°
2026-04-23 19:31 21.77520 -72.27330 33 ft 8 kts 272°
2026-04-23 19:31 21.77522 -72.27408 36 ft 13 kts 266°
2026-04-23 19:32 21.77453 -72.27461 36 ft 13 kts 198°
2026-04-23 19:32 21.77406 -72.27539 37 ft 13 kts 262°
2026-04-23 19:32 21.77408 -72.27639 37 ft 13 kts 273°
2026-04-23 19:32 21.77414 -72.27739 38 ft 14 kts 273°
2026-04-23 19:33 21.77420 -72.27861 39 ft 20 kts 273°
2026-04-23 19:33 21.77428 -72.28022 40 ft 22 kts 273°
2026-04-23 19:33 21.77452 -72.28207 41 ft 4 kts 177°
2026-04-23 19:34 21.77440 -72.28179 40 ft 5 kts 96°
2026-04-23 19:34 21.77434 -72.28124 40 ft 11 kts 94°
2026-04-23 19:34 21.77387 -72.27201 34 ft 130 kts 94°
2026-04-23 19:35 21.77309 -72.26049 291 ft 169 kts 90°
2026-04-23 19:35 21.77073 -72.24786 1030 ft 173 kts 103°
2026-04-23 19:35 21.76627 -72.23590 1824 ft 169 kts 104°
2026-04-23 19:35 21.76580 -72.22405 2354 ft 160 kts 76°
2026-04-23 19:36 21.76710 -72.21186 3016 ft 167 kts 87°
2026-04-23 19:36 21.76692 -72.19924 3579 ft 166 kts 94°
2026-04-23 19:36 21.76438 -72.18667 4229 ft 179 kts 103°
2026-04-23 19:36 21.76070 -72.17324 4857 ft 191 kts 106°
2026-04-23 19:37 21.75670 -72.15924 5391 ft 202 kts 107°
2026-04-23 19:37 21.75241 -72.14458 5874 ft 207 kts 108°
2026-04-23 19:37 21.74791 -72.12941 6454 ft 219 kts 109°
2026-04-23 19:37 21.74308 -72.11330 7003 ft 234 kts 109°
2026-04-23 19:38 21.73788 -72.09609 7594 ft 252 kts 110°
2026-04-23 19:38 21.73219 -72.07746 8170 ft 273 kts 110°
2026-04-23 19:38 21.72594 -72.05706 8508 ft 296 kts 109°
2026-04-23 19:38 21.71954 -72.03619 9365 ft 301 kts 110°
2026-04-23 19:39 21.71291 -72.01455 10176 ft 306 kts 110°
2026-04-23 19:39 21.70601 -71.99212 10634 ft 329 kts 110°
2026-04-23 19:39 21.69845 -71.96766 10869 ft 358 kts 110°
2026-04-23 19:39 21.69043 -71.94172 11515 ft 371 kts 110°
2026-04-23 19:40 21.68225 -71.91517 12452 ft 376 kts 110°
2026-04-23 19:40 21.67396 -71.88827 13407 ft 383 kts 110°
2026-04-23 19:40 21.66548 -71.86082 14266 ft 390 kts 110°
2026-04-23 19:40 21.65686 -71.83299 15111 ft 395 kts 110°
2026-04-23 19:41 21.64807 -71.80464 15968 ft 401 kts 110°
2026-04-23 19:41 21.63929 -71.77634 16794 ft 407 kts 110°
2026-04-23 19:41 21.63321 -71.75675 17353 ft 412 kts 110°
2026-04-23 19:41 21.62109 -71.71770 18426 ft 420 kts 110°
2026-04-23 19:42 21.61175 -71.68763 19134 ft 427 kts 110°
2026-04-23 19:42 21.60227 -71.65717 19885 ft 433 kts 110°
2026-04-23 19:42 21.59265 -71.62625 20653 ft 438 kts 110°
2026-04-23 19:42 21.58291 -71.59495 21394 ft 445 kts 110°
2026-04-23 19:43 21.57301 -71.56318 22119 ft 451 kts 110°
2026-04-23 19:43 21.56299 -71.53103 22836 ft 457 kts 110°
2026-04-23 19:43 21.55281 -71.49841 23535 ft 464 kts 110°
2026-04-23 19:43 21.54249 -71.46535 24132 ft 470 kts 110°
2026-04-23 19:44 21.53211 -71.43178 24727 ft 476 kts 110°
2026-04-23 19:44 21.52168 -71.39781 25334 ft 481 kts 111°
2026-04-23 19:44 21.51117 -71.36349 25921 ft 486 kts 111°
2026-04-23 19:44 21.50054 -71.32884 26477 ft 491 kts 111°
2026-04-23 19:45 21.48978 -71.29381 27038 ft 496 kts 111°
2026-04-23 19:45 21.47903 -71.25887 27579 ft 501 kts 111°
2026-04-23 19:45 21.46804 -71.22317 28117 ft 505 kts 111°
2026-04-23 19:45 21.45696 -71.18724 28613 ft 510 kts 111°
2026-04-23 19:46 21.44575 -71.15091 29077 ft 515 kts 112°
2026-04-23 19:46 21.43426 -71.11428 29532 ft 519 kts 113°
2026-04-23 19:46 21.42599 -71.09010 29841 ft 521 kts 115°
2026-04-23 19:46 21.41276 -71.05372 30272 ft 525 kts 116°
2026-04-23 19:47 21.39908 -71.01724 30671 ft 527 kts 116°
2026-04-23 19:47 21.38534 -70.98061 31088 ft 529 kts 116°
2026-04-23 19:47 21.37163 -70.94366 31475 ft 532 kts 116°
2026-04-23 19:47 21.35805 -70.90661 31810 ft 536 kts 116°
2026-04-23 19:48 21.34445 -70.86923 32168 ft 538 kts 116°
2026-04-23 19:48 21.33103 -70.83219 32508 ft 541 kts 116°
2026-04-23 19:48 21.31739 -70.79455 32795 ft 543 kts 115°
2026-04-23 19:48 21.30365 -70.75668 33121 ft 545 kts 116°
2026-04-23 19:49 21.28985 -70.71873 33420 ft 547 kts 116°
2026-04-23 19:49 21.27597 -70.68065 33693 ft 549 kts 116°
2026-04-23 19:49 21.26205 -70.64245 33947 ft 552 kts 116°
2026-04-23 19:49 21.24803 -70.60403 34183 ft 553 kts 116°
2026-04-23 19:50 21.23399 -70.56562 34505 ft 552 kts 116°
2026-04-23 19:50 21.21992 -70.52726 34887 ft 550 kts 116°
2026-04-23 19:50 21.20590 -70.48918 35271 ft 549 kts 116°
2026-04-23 19:50 21.19188 -70.45117 35661 ft 547 kts 116°
2026-04-23 19:51 21.17790 -70.41326 36056 ft 546 kts 116°
2026-04-23 19:51 21.16417 -70.37602 36441 ft 544 kts 117°
2026-04-23 19:51 21.15028 -70.33839 36832 ft 542 kts 117°
2026-04-23 19:51 21.13642 -70.30084 37196 ft 541 kts 117°
2026-04-23 19:52 21.12258 -70.26336 37558 ft 540 kts 117°
2026-04-23 19:52 21.10875 -70.22596 37925 ft 539 kts 117°
2026-04-23 19:52 21.09446 -70.18893 38259 ft 536 kts 120°
2026-04-23 19:52 21.07895 -70.15266 38574 ft 535 kts 121°
2026-04-23 19:53 21.06304 -70.11668 38856 ft 533 kts 122°
2026-04-23 19:53 21.03084 -70.04457 38986 ft 538 kts 121°
2026-04-23 19:54 20.99922 -69.97287 38989 ft 532 kts 121°
2026-04-23 19:54 20.96777 -69.90114 38998 ft 531 kts 121°
2026-04-23 19:55 20.93628 -69.82952 38984 ft 532 kts 121°
2026-04-23 19:55 20.90454 -69.75808 38995 ft 530 kts 123°
2026-04-23 19:56 20.86880 -69.68996 38985 ft 527 kts 127°
2026-04-23 19:56 20.83196 -69.62224 38988 ft 527 kts 127°
2026-04-23 19:57 20.79521 -69.55435 38992 ft 527 kts 126°
2026-04-23 19:57 20.75868 -69.48637 38996 ft 527 kts 126°
2026-04-23 19:58 20.72237 -69.41872 38997 ft 528 kts 126°
2026-04-23 19:58 20.68580 -69.35067 38996 ft 528 kts 126°
2026-04-23 19:59 20.64917 -69.28265 39002 ft 528 kts 126°
2026-04-23 19:59 20.61249 -69.21464 38989 ft 528 kts 126°
2026-04-23 20:00 20.57605 -69.14715 38985 ft 528 kts 126°
2026-04-23 20:00 20.53933 -69.07921 38991 ft 527 kts 126°
2026-04-23 20:01 20.50284 -69.01179 38999 ft 527 kts 126°
2026-04-23 20:01 20.46609 -68.94396 38987 ft 528 kts 126°
2026-04-23 20:02 20.42936 -68.87625 38980 ft 527 kts 126°
2026-04-23 20:02 20.39261 -68.80858 38999 ft 526 kts 126°
2026-04-23 20:03 20.35590 -68.74105 38988 ft 526 kts 126°
2026-04-23 20:03 20.31944 -68.67407 38998 ft 526 kts 126°
2026-04-23 20:04 20.28261 -68.60647 38999 ft 526 kts 126°
2026-04-23 20:04 20.24526 -68.53925 38979 ft 524 kts 129°
2026-04-23 20:05 20.20523 -68.47500 38980 ft 523 kts 130°
2026-04-23 20:05 20.16431 -68.41091 38994 ft 523 kts 130°
2026-04-23 20:06 20.12348 -68.34664 38996 ft 524 kts 130°
2026-04-23 20:06 20.08278 -68.28217 38992 ft 524 kts 130°
2026-04-23 20:07 20.04241 -68.21814 38990 ft 524 kts 130°
2026-04-23 20:07 20.00173 -68.15370 38991 ft 524 kts 130°
2026-04-23 20:08 19.96107 -68.08941 38984 ft 523 kts 130°
2026-04-23 20:08 19.92040 -68.02518 38987 ft 523 kts 130°
2026-04-23 20:09 19.87971 -67.96099 38989 ft 523 kts 130°
2026-04-23 20:09 19.83928 -67.89728 38985 ft 523 kts 130°
2026-04-23 20:10 19.80540 -67.84392 38983 ft 523 kts 130°
2026-04-23 20:10 19.75794 -67.76928 38980 ft 523 kts 130°
2026-04-23 20:11 19.71720 -67.70529 38981 ft 523 kts 130°
2026-04-23 20:11 19.67646 -67.64136 38966 ft 523 kts 130°
2026-04-23 20:12 19.63567 -67.57741 38978 ft 522 kts 130°
2026-04-23 20:12 19.59494 -67.51362 38976 ft 521 kts 131°
2026-04-23 20:13 19.55442 -67.45025 38982 ft 521 kts 131°
2026-04-23 20:13 19.51369 -67.38660 38978 ft 521 kts 131°
2026-04-23 20:14 19.47296 -67.32304 38983 ft 521 kts 131°
2026-04-23 20:14 19.43216 -67.25941 38976 ft 522 kts 131°
2026-04-23 20:15 19.39131 -67.19577 38974 ft 522 kts 131°
2026-04-23 20:15 19.35068 -67.13256 38979 ft 522 kts 131°
2026-04-23 20:16 19.30972 -67.06888 38978 ft 523 kts 131°
2026-04-23 20:16 19.26876 -67.00528 38961 ft 523 kts 131°
2026-04-23 20:17 19.22779 -66.94172 38976 ft 523 kts 131°
2026-04-23 20:17 19.18699 -66.87849 38970 ft 523 kts 131°
2026-04-23 20:18 19.14594 -66.81494 38976 ft 523 kts 131°
2026-04-23 20:18 19.10479 -66.75129 38971 ft 523 kts 131°
2026-04-23 20:19 19.06363 -66.68770 38970 ft 523 kts 131°
2026-04-23 20:19 19.02246 -66.62415 38965 ft 523 kts 131°
2026-04-23 20:20 18.98130 -66.56066 38960 ft 523 kts 131°
2026-04-23 20:20 18.94038 -66.49762 38963 ft 523 kts 131°
2026-04-23 20:21 18.90298 -66.43100 38969 ft 530 kts 123°
2026-04-23 20:21 18.86920 -66.36166 38959 ft 530 kts 122°
2026-04-23 20:22 18.83553 -66.29244 38969 ft 530 kts 123°
2026-04-23 20:22 18.80148 -66.22340 38967 ft 529 kts 123°
2026-04-23 20:23 18.76736 -66.15472 38973 ft 528 kts 123°
2026-04-23 20:23 18.73342 -66.08658 38967 ft 528 kts 123°
2026-04-23 20:24 18.69927 -66.01804 38972 ft 527 kts 123°
2026-04-23 20:24 18.66514 -65.94958 38974 ft 527 kts 123°
2026-04-23 20:25 18.63103 -65.88124 38975 ft 526 kts 123°
2026-04-23 20:25 18.59696 -65.81303 38974 ft 525 kts 123°
2026-04-23 20:26 18.56285 -65.74484 38974 ft 525 kts 123°
2026-04-23 20:26 18.52900 -65.67726 38984 ft 525 kts 123°
2026-04-23 20:27 18.49485 -65.60915 38978 ft 524 kts 123°
2026-04-23 20:27 18.46086 -65.54140 38986 ft 522 kts 123°
2026-04-23 20:28 18.42706 -65.47409 38987 ft 516 kts 123°
2026-04-23 20:28 18.39365 -65.40763 38985 ft 511 kts 123°
2026-04-23 20:29 18.36044 -65.34170 38975 ft 509 kts 123°
2026-04-23 20:29 18.32726 -65.27592 38983 ft 509 kts 123°
2026-04-23 20:30 18.29424 -65.21051 38978 ft 509 kts 123°
2026-04-23 20:30 18.24425 -65.11163 38981 ft 511 kts 123°
2026-04-23 20:31 18.21078 -65.04547 38976 ft 513 kts 123°
2026-04-23 20:31 18.17719 -64.97913 38970 ft 513 kts 123°
2026-04-23 20:32 18.14361 -64.91288 38966 ft 513 kts 123°
2026-04-23 20:32 18.10999 -64.84665 38968 ft 513 kts 123°
2026-04-23 20:33 18.07637 -64.78047 38965 ft 512 kts 123°
2026-04-23 20:33 18.04280 -64.71446 38972 ft 512 kts 123°
2026-04-23 20:34 18.00945 -64.64896 38975 ft 511 kts 123°
2026-04-23 20:34 17.97583 -64.58299 38974 ft 511 kts 123°
2026-04-23 20:35 17.94797 -64.52840 38976 ft 510 kts 123°
2026-04-23 20:35 17.91446 -64.46277 38976 ft 510 kts 123°
2026-04-23 20:36 17.88091 -64.39715 38977 ft 510 kts 123°
2026-04-23 20:36 17.84733 -64.33152 38969 ft 509 kts 123°
2026-04-23 20:37 17.81378 -64.26602 38970 ft 509 kts 123°
2026-04-23 20:37 17.78048 -64.20109 38967 ft 508 kts 123°
2026-04-23 20:38 17.74694 -64.13574 38932 ft 509 kts 123°
2026-04-23 20:38 17.72997 -64.10275 38226 ft 516 kts 123°
2026-04-23 20:38 17.71295 -64.06965 37501 ft 515 kts 123°
2026-04-23 20:39 17.69590 -64.03648 36787 ft 514 kts 123°
2026-04-23 20:39 17.67909 -64.00378 36073 ft 515 kts 123°
2026-04-23 20:39 17.66207 -63.97071 35245 ft 517 kts 123°
2026-04-23 20:39 17.64493 -63.93744 34611 ft 517 kts 122°
2026-04-23 20:40 17.62786 -63.90429 34034 ft 515 kts 122°
2026-04-23 20:40 17.61087 -63.87130 33420 ft 513 kts 122°
2026-04-23 20:40 17.59395 -63.83846 32818 ft 509 kts 122°
2026-04-23 20:40 17.57712 -63.80584 32282 ft 505 kts 122°
2026-04-23 20:41 17.56045 -63.77354 31752 ft 501 kts 122°
2026-04-23 20:41 17.54392 -63.74153 31199 ft 497 kts 122°
2026-04-23 20:41 17.52750 -63.70976 30667 ft 494 kts 122°
2026-04-23 20:41 17.51222 -63.67757 30122 ft 493 kts 116°
2026-04-23 20:42 17.49999 -63.64459 29490 ft 491 kts 111°
2026-04-23 20:42 17.49081 -63.61027 28823 ft 488 kts 105°
2026-04-23 20:42 17.48323 -63.57561 28036 ft 486 kts 104°
2026-04-23 20:42 17.47575 -63.54101 27187 ft 487 kts 104°
2026-04-23 20:43 17.46820 -63.50636 26326 ft 487 kts 104°
2026-04-23 20:43 17.46055 -63.47177 25496 ft 488 kts 104°
2026-04-23 20:43 17.45281 -63.43725 24673 ft 485 kts 105°
2026-04-23 20:43 17.44291 -63.40348 23914 ft 482 kts 114°
2026-04-23 20:44 17.42847 -63.37258 23158 ft 477 kts 123°
2026-04-23 20:44 17.40956 -63.34448 22341 ft 470 kts 133°
2026-04-23 20:44 17.38685 -63.32018 21557 ft 462 kts 142°
2026-04-23 20:44 17.36119 -63.30045 20792 ft 453 kts 152°
2026-04-23 20:45 17.33381 -63.28593 20022 ft 430 kts 161°
2026-04-23 20:45 17.30591 -63.27702 19276 ft 409 kts 172°
2026-04-23 20:45 17.27826 -63.27369 18556 ft 392 kts 182°
2026-04-23 20:45 17.25161 -63.27579 17772 ft 378 kts 193°
2026-04-23 20:46 17.22675 -63.28309 16975 ft 365 kts 204°
2026-04-23 20:46 17.20481 -63.29550 16210 ft 353 kts 218°
2026-04-23 20:46 17.18704 -63.31306 15591 ft 352 kts 232°
2026-04-23 20:46 17.17434 -63.33492 15012 ft 352 kts 247°
2026-04-23 20:47 17.16613 -63.35904 14451 ft 353 kts 253°
2026-04-23 20:47 17.15939 -63.38374 13896 ft 354 kts 255°
2026-04-23 20:47 17.15309 -63.40831 13291 ft 354 kts 255°
2026-04-23 20:47 17.14679 -63.43321 12716 ft 353 kts 255°
2026-04-23 20:48 17.14055 -63.45805 12165 ft 352 kts 255°
2026-04-23 20:48 17.13436 -63.48279 11652 ft 349 kts 255°
2026-04-23 20:48 17.12825 -63.50724 11181 ft 346 kts 255°
2026-04-23 20:48 17.12320 -63.53149 10691 ft 337 kts 265°
2026-04-23 20:49 17.12503 -63.55578 10221 ft 336 kts 285°
2026-04-23 20:49 17.13505 -63.57756 9774 ft 334 kts 307°
2026-04-23 20:49 17.15181 -63.59363 9309 ft 331 kts 329°
2026-04-23 20:49 17.17322 -63.60179 8890 ft 327 kts 352°
2026-04-23 20:50 17.19563 -63.60054 8519 ft 323 kts 15°
2026-04-23 20:50 17.21549 -63.59024 8190 ft 319 kts 39°
2026-04-23 20:50 17.22948 -63.57265 7951 ft 313 kts 63°
2026-04-23 20:50 17.23729 -63.55174 7756 ft 304 kts 74°
2026-04-23 20:51 17.24254 -63.53062 7540 ft 296 kts 77°
2026-04-23 20:51 17.24693 -63.50990 7343 ft 288 kts 78°
2026-04-23 20:51 17.25105 -63.48959 7144 ft 282 kts 78°
2026-04-23 20:51 17.25509 -63.46961 6951 ft 279 kts 78°
2026-04-23 20:52 17.25911 -63.44989 6762 ft 275 kts 78°
2026-04-23 20:52 17.26312 -63.43042 6565 ft 273 kts 78°
2026-04-23 20:52 17.26713 -63.41104 6384 ft 270 kts 78°
2026-04-23 20:52 17.27110 -63.39198 6183 ft 267 kts 78°
2026-04-23 20:53 17.27501 -63.37332 5979 ft 265 kts 78°
2026-04-23 20:53 17.27894 -63.35455 5779 ft 264 kts 78°
2026-04-23 20:53 17.28287 -63.33586 5582 ft 263 kts 78°
2026-04-23 20:53 17.28680 -63.31714 5391 ft 263 kts 78°
2026-04-23 20:54 17.29074 -63.29843 5205 ft 264 kts 78°
2026-04-23 20:54 17.29468 -63.27969 5093 ft 262 kts 78°
2026-04-23 20:54 17.29859 -63.26107 5044 ft 262 kts 78°
2026-04-23 20:54 17.30252 -63.24242 5009 ft 262 kts 78°
2026-04-23 20:55 17.30642 -63.22387 4957 ft 259 kts 78°
2026-04-23 20:55 17.31028 -63.20552 4905 ft 257 kts 77°
2026-04-23 20:55 17.31406 -63.18749 4853 ft 257 kts 77°
2026-04-23 20:55 17.31790 -63.16920 4814 ft 257 kts 78°
2026-04-23 20:56 17.32174 -63.15091 4765 ft 257 kts 78°
2026-04-23 20:56 17.32557 -63.13264 4715 ft 258 kts 77°
2026-04-23 20:56 17.32944 -63.11418 4569 ft 261 kts 77°
2026-04-23 20:56 17.33335 -63.09554 4462 ft 261 kts 77°
2026-04-23 20:57 17.33721 -63.07711 4335 ft 257 kts 77°
2026-04-23 20:57 17.34101 -63.05893 4205 ft 255 kts 77°
2026-04-23 20:57 17.34479 -63.04085 4019 ft 251 kts 77°
2026-04-23 20:57 17.34821 -63.02316 3806 ft 245 kts 84°
2026-04-23 20:58 17.34566 -63.00600 3592 ft 243 kts 115°
2026-04-23 20:58 17.33507 -62.99252 3394 ft 239 kts 141°
2026-04-23 20:58 17.32081 -62.98386 3135 ft 237 kts 154°
2026-04-23 20:58 17.30576 -62.97683 2879 ft 236 kts 155°
2026-04-23 20:59 17.29075 -62.96994 2635 ft 235 kts 154°
2026-04-23 20:59 17.27582 -62.96305 2376 ft 231 kts 154°
2026-04-23 20:59 17.26216 -62.95476 2222 ft 222 kts 144°
2026-04-23 20:59 17.24991 -62.94606 2159 ft 210 kts 144°
2026-04-23 21:00 17.23788 -62.93759 2116 ft 205 kts 145°
2026-04-23 21:00 17.22605 -62.92934 2087 ft 205 kts 144°
2026-04-23 21:00 17.21414 -62.92108 2040 ft 205 kts 144°
2026-04-23 21:00 17.20401 -62.91130 2002 ft 196 kts 116°
2026-04-23 21:01 17.20147 -62.89773 1999 ft 192 kts 82°
2026-04-23 21:01 17.20577 -62.88465 1994 ft 191 kts 59°
2026-04-23 21:01 17.21300 -62.87293 2000 ft 192 kts 56°
2026-04-23 21:01 17.22036 -62.86151 1995 ft 188 kts 56°
2026-04-23 21:02 17.22749 -62.85041 2020 ft 183 kts 56°
2026-04-23 21:02 17.23449 -62.83948 2013 ft 178 kts 56°
2026-04-23 21:02 17.24123 -62.82898 1953 ft 176 kts 56°
2026-04-23 21:02 17.24791 -62.81852 1846 ft 168 kts 56°
2026-04-23 21:03 17.25435 -62.80839 1776 ft 165 kts 56°
2026-04-23 21:03 17.26069 -62.79841 1669 ft 163 kts 56°
2026-04-23 21:03 17.26682 -62.78877 1586 ft 150 kts 55°
2026-04-23 21:03 17.27260 -62.77964 1484 ft 147 kts 54°
2026-04-23 21:04 17.27810 -62.77099 1346 ft 143 kts 56°
2026-04-23 21:04 17.28350 -62.76246 1198 ft 142 kts 56°
2026-04-23 21:04 17.28889 -62.75393 993 ft 139 kts 55°
2026-04-23 21:04 17.29415 -62.74577 728 ft 132 kts 57°
2026-04-23 21:05 17.29900 -62.73794 488 ft 122 kts 57°
2026-04-23 21:05 17.30383 -62.73032 307 ft 129 kts 56°
2026-04-23 21:05 17.30871 -62.72262 181 ft 123 kts 57°
2026-04-23 21:05 17.31284 -62.71611 174 ft 88 kts 57°
2026-04-23 21:06 17.31557 -62.71176 174 ft 49 kts 56°
2026-04-23 21:06 17.31640 -62.70990 175 ft 21 kts 75°
2026-04-23 21:06 17.31681 -62.70989 175 ft 6 kts 261°
2026-04-23 21:06 17.31591 -62.71117 174 ft 38 kts 234°
2026-04-23 21:07 17.31423 -62.71354 172 ft 35 kts 215°
2026-04-23 21:07 17.31275 -62.71446 165 ft 12 kts 212°
2026-04-23 21:07 17.31217 -62.71501 165 ft 10 kts 235°
2026-04-23 21:07 17.31181 -62.71555 165 ft 9 kts 230°
2026-04-23 21:08 17.31153 -62.71557 164 ft 4 kts 158°
2026-04-23 21:08 17.31131 -62.71543 164 ft 4 kts 147°
2026-04-23 21:08 17.31130 -62.71543 164 ft 0 kts 147°
2026-04-23 21:09 17.31127 -62.71538 164 ft 0 kts 196°